Wind_Speed
22 23 23 21 19 18 22 24 23 23 20 17 21 26 34 38 43 49 50 51 55 51 46 40 37 34 31 30 30 32 33 35 34 34 34 34 34 33 33 32 33 33 33 34 33 34 36 36 37
24 25 25 21 19 20 25 27 29 28 21 18 23 30 35 39 42 45 49 54 46 41 37 34 32 31 32 33 34 34 33 32 33 34 34 35 35 35 35 33 33 34 34 34 35 35 35 37 38
26 26 26 23 20 21 26 28 29 23 19 24 30 34 37 43 46 48 43 38 38 38 36 35 35 36 35 34 33 33 34 35 36 37 37 37 36 36 35 35 34 34 34 34 35 35 35 36 39
25 25 24 17 15 24 33 31 33 29 24 28 34 38 40 41 36 34 38 40 40 40 38 36 34 34 34 34 34 34 36 38 38 39 39 38 36 36 36 34 34 34 34 34 35 35 35 36 37
20 20 17 13 16 26 28 31 33 25 24 26 28 31 32 34 36 39 39 37 36 36 36 35 35 35 35 35 37 38 39 40 40 40 40 38 38 38 35 35 35 34 35 35 36 36 36 36 37
17 20 17 14 18 26 30 36 36 32 32 33 34 36 38 38 39 42 39 38 38 38 37 37 36 36 37 38 40 41 42 43 42 42 41 40 40 38 37 36 36 37 37 37 38 37 37 37 37
20 24 17 14 18 29 33 34 34 34 37 37 36 40 42 43 45 43 39 41 41 40 38 37 38 39 39 40 41 42 43 43 43 43 43 41 40 39 39 37 38 39 39 40 40 40 41 40 40
23 26 21 19 26 32 31 31 33 37 40 39 40 43 45 48 45 40 42 44 42 41 39 40 40 41 42 42 43 43 43 43 43 44 42 43 41 40 40 40 40 40 42 42 42 43 43 44 42
25 26 25 25 29 30 33 37 38 38 36 38 39 40 41 41 41 42 43 42 41 42 42 42 42 43 44 44 44 43 43 43 42 43 43 44 41 41 41 42 43 43 44 45 45 45 46 45 44
29 32 28 28 32 33 34 35 34 35 38 41 37 40 42 41 42 41 41 41 42 41 41 42 42 43 43 44 44 44 44 43 42 42 43 44 42 42 43 44 44 45 45 45 46 46 46 45 45
29 32 33 32 33 33 33 33 35 35 41 43 42 40 40 42 42 41 42 42 41 42 42 42 42 42 44 44 43 43 42 42 41 41 42 44 45 46 47 47 46 45 45 45 46 46 45 45 45
33 31 35 34 33 32 34 36 37 37 40 43 45 43 38 37 38 36 36 36 39 42 43 43 44 45 46 46 45 44 42 41 41 41 42 44 46 47 47 46 45 45 44 45 46 46 46 46 46
30 29 31 30 30 33 36 39 40 39 43 44 42 39 38 40 38 37 36 37 38 37 38 40 42 43 43 43 42 42 42 42 41 41 42 44 44 44 43 44 44 45 45 46 47 47 47 46 47
31 29 26 25 27 34 39 39 35 37 40 37 36 36 38 39 37 39 40 40 39 36 35 36 37 38 40 39 40 41 41 41 40 40 39 39 40 42 42 44 45 46 47 47 47 47 48 48 48
33 31 27 29 33 36 36 37 34 38 40 42 41 39 39 39 41 43 41 41 33 30 31 36 38 41 38 39 38 41 40 40 39 38 37 39 40 41 43 45 46 47 48 49 49 49 50 51 51
27 26 24 20 26 28 30 32 33 39 43 41 42 44 45 44 47 45 41 32 32 34 38 36 40 40 38 45 43 39 36 36 37 37 38 40 42 43 45 47 48 48 49 49 48 47 47 48 47
25 24 24 23 27 30 33 36 40 44 43 42 45 46 47 46 49 37 32 34 31 32 33 39 42 44 44 42 36 34 34 35 38 39 40 42 43 44 44 43 45 46 46 47 47 47 47 47 47
22 22 23 23 25 23 27 31 36 40 41 44 46 49 51 52 44 40 35 32 27 37 37 38 36 34 36 31 33 36 38 40 41 43 43 42 42 43 43 45 46 47 49 50 51 50 51 51 52
24 26 27 24 27 30 31 38 39 39 44 45 47 50 47 42 40 41 34 27 34 39 35 23 21 25 30 33 35 38 40 41 42 41 42 42 43 43 44 45 47 48 50 52 54 55 55 57 58
25 27 28 31 34 36 38 42 41 41 39 39 34 29 30 34 36 37 33 30 39 36 28 25 27 30 34 37 40 42 42 42 42 41 42 43 45 47 48 49 49 51 52 54 56 57 58 59 62
26 31 34 37 39 38 40 40 38 35 32 19 21 18 23 26 30 34 31 26 23 19 24 28 30 34 38 40 42 43 43 43 42 43 44 45 46 47 49 50 51 53 53 52 52 52 53 53 58
30 33 35 37 38 37 35 31 26 21 15 20 16 19 22 31 31 38 24 15 18 23 27 30 33 37 40 41 41 41 41 41 41 43 43 44 46 48 47 41 38 38 40 42 45 48 47 47 50
36 36 35 35 35 32 26 18 16 13 18 19 17 17 19 20 22 14 7 14 20 25 29 32 35 37 39 40 40 39 40 40 40 41 44 45 37 32 33 35 38 41 45 48 49 49 51 50 50
38 36 33 31 28 19 16 19 18 17 14 17 18 21 25 22 15 10 11 16 21 27 30 33 36 36 38 38 39 37 36 37 40 40 31 29 29 34 36 39 42 42 38 41 44 42 43 46 46
36 35 32 24 10 12 15 19 15 12 10 16 18 15 20 15 6 11 14 17 23 28 31 34 35 37 37 36 35 36 38 38 29 28 25 30 34 38 34 38 39 40 46 46 47 42 41 45 46
30 31 26 15 10 10 9 14 10 6 8 10 6 6 12 9 10 12 14 19 25 29 33 34 36 36 34 35 36 37 30 26 28 30 32 32 28 28 30 38 41 38 43 42 46 49 38 44 50
27 30 19 11 10 4 6 3 11 16 7 11 10 12 10 10 11 14 19 24 27 32 32 34 33 34 34 36 32 25 25 26 27 31 26 25 30 33 34 32 31 33 47 49 47 36 38 41 43
31 25 10 5 3 5 8 3 11 11 8 7 10 12 13 13 17 20 23 25 30 31 31 29 32 33 33 27 26 25 26 27 24 26 28 28 29 36 31 28 29 35 37 39 45 39 34 39 41
24 6 6 5 2 4 7 8 3 6 6 7 10 14 15 16 19 22 24 28 29 28 28 30 31 28 26 26 25 30 28 24 23 26 22 28 30 19 25 30 39 44 33 29 41 37 35 32 32
10 2 3 3 4 6 6 10 7 6 7 9 12 13 14 17 20 22 26 27 25 25 27 29 24 26 25 24 31 27 23 23 29 26 26 27 25 26 40 40 43 36 48 46 26 30 37 22 15
Wind_Direction
279 280 280 281 282 282 273 266 266 271 270 265 261 275 281 286 288 294 297 300 301 297 296 297 296 296 296 296 296 296 296 296 296 296 297 297 297 294 291 288 285 282 278 274 270 266 264 262 259
277 279 280 281 283 281 269 272 267 268 273 270 269 271 272 276 279 283 289 295 295 295 297 298 298 297 297 297 296 297 297 297 298 297 298 297 296 295 292 289 286 282 278 273 271 268 264 263 262
283 282 282 283 279 267 268 267 267 275 283 277 275 275 281 285 288 289 292 294 295 296 297 298 298 298 298 298 297 298 299 298 298 298 297 296 294 293 291 289 286 282 278 275 272 269 266 264 264
283 281 284 287 267 256 266 256 251 260 271 276 275 280 285 291 296 295 295 295 294 295 296 297 297 297 297 296 296 296 297 298 298 297 297 297 295 294 292 291 287 283 280 277 273 271 268 264 262
286 283 287 279 253 268 271 266 261 270 287 281 281 284 286 291 297 299 297 294 293 295 296 295 295 295 295 295 296 297 297 297 297 296 295 294 294 293 292 289 285 283 280 276 273 271 268 265 262
286 286 289 286 246 259 261 259 263 274 275 280 285 292 295 295 299 302 299 298 295 294 293 292 292 291 292 293 293 295 295 296 295 294 293 293 293 292 288 285 282 280 277 274 273 269 266 265 262
287 289 288 284 241 256 259 265 274 281 282 285 287 289 289 293 296 299 296 296 296 295 294 291 290 290 291 291 292 292 293 293 292 292 292 291 290 288 286 283 280 278 275 273 272 269 267 265 260
283 287 288 271 267 260 254 260 267 271 278 286 287 287 288 292 295 295 296 296 297 296 294 293 292 292 292 292 291 292 292 291 292 291 290 289 286 284 282 281 278 275 273 273 271 268 267 263 261
286 287 285 277 264 256 262 270 279 286 295 294 289 290 294 298 297 296 296 296 297 296 294 293 293 292 291 290 290 290 291 292 290 290 287 287 282 281 278 277 274 273 271 270 268 264 263 264 261
292 290 284 270 268 266 269 279 284 290 295 296 297 297 297 298 296 296 296 295 295 293 292 291 291 292 291 291 293 294 293 292 289 287 285 285 283 281 279 277 273 271 267 266 266 264 263 261 260
287 292 286 287 283 276 281 287 290 297 291 295 294 295 294 295 296 297 297 296 297 296 294 294 293 292 292 292 291 290 288 288 286 284 283 282 280 277 275 273 271 270 270 268 266 265 263 261 258
289 288 291 295 296 300 293 295 293 291 289 289 293 295 295 292 295 295 296 299 298 300 297 296 296 296 295 294 293 291 288 285 282 280 279 277 275 274 273 273 273 273 271 269 267 265 263 261 260
287 289 289 294 299 292 287 285 286 283 285 289 292 293 294 299 298 298 299 298 298 299 296 297 298 297 298 296 293 290 288 287 286 283 279 277 275 275 275 275 274 274 273 272 270 267 266 263 261
287 284 280 274 270 269 278 283 280 279 282 285 289 294 299 297 296 296 305 301 299 307 303 300 300 303 301 301 300 297 295 291 286 283 281 280 280 281 280 279 278 277 275 272 270 269 267 264 262
293 294 287 279 284 283 285 287 287 289 297 303 308 304 300 302 304 306 304 298 312 313 300 302 308 305 305 306 306 306 298 291 286 281 279 280 280 281 281 281 280 278 277 276 274 272 270 267 264
299 299 294 281 279 281 283 291 288 294 303 305 304 305 305 306 305 307 302 314 317 306 304 305 311 302 304 305 302 296 291 290 289 288 288 289 289 288 287 287 285 284 282 280 278 275 271 268 263
299 295 292 288 296 298 302 301 297 294 300 302 301 301 299 298 302 305 314 313 311 303 307 303 306 306 305 306 298 295 294 294 294 294 293 292 292 291 291 290 289 287 283 280 277 274 271 268 264
292 294 298 303 307 307 304 293 291 291 294 293 292 291 293 295 298 307 310 314 308 310 312 306 305 297 300 299 304 302 302 301 300 300 300 300 298 296 293 291 289 287 285 282 278 274 270 266 263
312 314 316 311 306 303 301 298 297 284 281 283 280 282 292 292 300 303 299 304 315 312 309 307 295 301 306 309 306 307 307 307 307 308 307 304 300 297 294 291 286 283 280 277 274 271 266 263 259
313 311 304 301 305 306 304 300 293 289 284 283 292 296 289 293 305 311 294 313 317 315 307 317 321 318 314 314 314 313 312 312 312 310 305 301 299 296 294 292 289 285 280 277 275 272 269 265 262
301 301 303 306 308 312 304 302 297 295 303 324 306 315 311 308 314 295 320 319 321 324 317 320 323 320 317 316 316 316 316 316 312 308 306 305 304 301 296 293 291 289 287 285 283 280 276 270 266
303 302 308 312 312 308 299 293 299 300 308 319 317 317 308 312 308 281 315 337 322 317 321 325 323 319 317 318 316 318 314 309 307 307 307 303 301 302 304 305 306 303 296 291 287 282 278 274 266
303 308 316 319 313 306 297 303 315 307 299 301 316 301 303 310 308 325 312 328 321 323 325 323 318 318 321 319 317 313 312 311 311 310 309 310 313 319 316 312 307 302 298 300 297 288 282 276 266
311 324 325 318 309 300 302 309 299 289 295 287 304 298 295 297 311 314 342 333 326 321 323 319 321 325 320 317 316 318 318 317 316 316 318 323 323 319 316 317 311 302 309 304 306 299 283 274 266
319 323 326 317 295 300 315 317 282 285 306 298 297 291 296 318 328 339 343 332 321 322 320 324 328 322 320 324 325 323 323 320 328 327 325 329 329 325 316 320 322 316 306 296 293 287 288 283 269
323 329 328 320 318 322 305 1 31 33 321 312 39 52 51 25 359 344 335 329 327 323 330 330 326 328 329 329 328 328 331 342 334 331 342 340 339 328 322 320 313 314 307 307 314 303 287 288 271
327 318 317 311 318 329 336 57 17 8 62 70 48 52 47 24 360 348 343 338 327 334 334 331 332 332 333 332 339 350 348 348 342 342 346 338 333 327 324 326 337 321 323 316 315 313 308 294 290
325 319 303 285 345 348 330 311 353 21 66 58 48 45 31 16 3 354 347 336 339 337 335 336 335 338 339 359 356 356 3 352 0 343 342 337 339 346 342 338 328 329 326 310 307 311 295 292 286
312 297 330 316 29 29 338 338 302 49 66 32 45 39 25 13 359 354 344 344 341 340 342 341 343 352 5 5 11 2 359 358 358 8 352 343 347 353 340 344 339 336 351 330 310 304 316 296 285
271 262 337 53 55 45 31 30 49 121 36 30 42 36 25 9 1 353 348 349 350 347 347 352 6 11 16 17 3 8 19 20 7 8 3 360 6 346 337 340 333 335 328 356 350 315 326 305 298
Height
5861 5861 5860 5861 5863 5859 5854 5852 5851 5851 5852 5852 5852 5852 5849 5843 5839 5838 5834 5833 5830 5826 5823 5821 5819 5817 5815 5813 5810 5808 5806 5803 5802 5799 5797 5795 5793 5791 5790 5789 5788 5787 5787 5786 5786 5787 5786 5786 5788
5857 5856 5856 5857 5857 5854 5849 5848 5846 5847 5847 5848 5848 5847 5846 5844 5842 5839 5835 5830 5823 5820 5817 5815 5813 5811 5808 5806 5804 5801 5799 5797 5795 5793 5791 5788 5786 5784 5782 5781 5780 5779 5779 5779 5779 5779 5779 5778 5779
5853 5851 5850 5851 5851 5847 5845 5843 5841 5840 5842 5842 5842 5840 5839 5838 5837 5834 5830 5824 5818 5815 5813 5810 5807 5804 5801 5799 5797 5795 5793 5790 5788 5786 5783 5781 5778 5776 5775 5773 5772 5771 5771 5770 5770 5771 5772 5772 5772
5847 5846 5845 5845 5843 5840 5837 5837 5835 5836 5836 5836 5835 5834 5833 5830 5829 5826 5823 5818 5813 5810 5806 5803 5800 5797 5795 5793 5791 5789 5786 5783 5781 5778 5776 5773 5771 5768 5766 5765 5764 5764 5763 5763 5763 5763 5764 5765 5765
5842 5841 5841 5840 5838 5834 5831 5831 5828 5829 5831 5830 5829 5828 5826 5824 5822 5819 5817 5813 5808 5804 5801 5797 5794 5791 5788 5786 5783 5781 5778 5776 5773 5770 5768 5765 5763 5761 5759 5758 5757 5756 5755 5755 5755 5755 5756 5757 5758
5838 5836 5837 5837 5833 5828 5826 5825 5824 5824 5823 5824 5823 5822 5819 5816 5816 5812 5809 5806 5802 5799 5795 5791 5788 5785 5782 5779 5776 5773 5770 5767 5765 5762 5759 5757 5755 5753 5752 5750 5749 5748 5747 5747 5746 5747 5747 5748 5749
5834 5831 5832 5832 5830 5824 5821 5819 5818 5816 5816 5817 5817 5815 5814 5810 5808 5805 5802 5798 5794 5791 5787 5784 5780 5777 5774 5771 5769 5766 5762 5759 5756 5753 5751 5748 5747 5744 5743 5742 5741 5739 5739 5738 5738 5737 5738 5739 5739
5830 5828 5828 5827 5823 5821 5817 5814 5814 5812 5810 5810 5810 5809 5806 5804 5801 5797 5794 5791 5786 5783 5779 5776 5772 5769 5765 5762 5759 5756 5753 5750 5746 5743 5741 5739 5737 5735 5733 5732 5731 5730 5729 5729 5728 5728 5728 5726 5729
5825 5824 5824 5822 5816 5815 5813 5811 5810 5807 5806 5804 5803 5800 5798 5795 5792 5790 5787 5784 5779 5775 5770 5767 5763 5759 5756 5753 5750 5747 5744 5740 5736 5733 5730 5729 5727 5725 5724 5722 5721 5720 5719 5718 5718 5717 5717 5718 5718
5819 5817 5818 5816 5811 5807 5805 5804 5803 5802 5798 5797 5797 5793 5790 5787 5784 5782 5780 5777 5772 5767 5762 5759 5755 5751 5747 5743 5740 5736 5733 5729 5726 5722 5719 5717 5716 5714 5712 5711 5710 5710 5709 5708 5706 5706 5707 5707 5708
5816 5812 5810 5810 5807 5803 5800 5798 5797 5796 5792 5791 5790 5788 5785 5780 5776 5774 5770 5766 5761 5754 5751 5748 5745 5741 5738 5734 5731 5727 5723 5720 5716 5712 5708 5706 5704 5703 5701 5699 5698 5698 5698 5696 5695 5695 5695 5695 5696
5808 5806 5802 5800 5798 5797 5794 5792 5791 5790 5787 5784 5780 5778 5777 5773 5771 5767 5764 5759 5752 5742 5739 5737 5735 5731 5727 5723 5719 5715 5712 5709 5707 5702 5699 5696 5693 5691 5689 5687 5686 5686 5686 5684 5683 5683 5683 5683 5684
5804 5802 5798 5795 5793 5790 5788 5786 5784 5782 5779 5777 5774 5770 5767 5764 5760 5757 5754 5750 5745 5737 5731 5730 5726 5721 5716 5712 5707 5703 5699 5695 5693 5690 5687 5683 5680 5679 5677 5675 5674 5673 5672 5671 5670 5670 5670 5671 5671
5798 5796 5794 5792 5789 5783 5780 5779 5775 5775 5771 5769 5767 5762 5758 5754 5751 5748 5745 5741 5737 5732 5723 5719 5715 5711 5705 5701 5697 5693 5689 5685 5682 5679 5676 5672 5669 5667 5665 5663 5661 5660 5659 5658 5657 5657 5656 5656 5658
5789 5789 5787 5783 5782 5778 5776 5772 5766 5763 5759 5755 5753 5751 5747 5744 5741 5739 5735 5732 5729 5723 5715 5709 5705 5700 5696 5692 5688 5684 5680 5676 5673 5670 5667 5662 5659 5656 5653 5650 5648 5646 5644 5642 5642 5641 5641 5641 5643
5783 5781 5780 5777 5773 5771 5767 5765 5757 5750 5749 5748 5744 5739 5735 5733 5731 5730 5727 5725 5721 5714 5707 5702 5697 5691 5687 5683 5679 5674 5670 5666 5662 5659 5655 5651 5647 5644 5640 5637 5634 5632 5629 5627 5626 5626 5625 5625 5627
5776 5775 5773 5770 5766 5762 5758 5754 5748 5744 5741 5738 5734 5731 5727 5725 5724 5721 5721 5718 5713 5706 5701 5694 5690 5684 5679 5675 5670 5665 5661 5657 5653 5649 5645 5641 5636 5632 5628 5624 5620 5617 5615 5612 5612 5612 5611 5611 5612
5773 5770 5767 5763 5762 5757 5753 5747 5741 5735 5734 5729 5726 5722 5720 5719 5718 5716 5714 5711 5704 5697 5693 5687 5682 5676 5672 5667 5663 5658 5653 5647 5643 5638 5633 5628 5623 5619 5615 5610 5606 5602 5598 5596 5594 5595 5594 5595 5596
5766 5763 5760 5758 5755 5751 5747 5739 5734 5727 5723 5721 5718 5716 5715 5712 5711 5709 5706 5701 5696 5690 5685 5679 5674 5669 5664 5660 5655 5650 5644 5639 5632 5627 5622 5616 5610 5605 5601 5598 5593 5589 5584 5580 5577 5576 5576 5575 5576
5761 5758 5756 5754 5748 5744 5738 5732 5725 5721 5719 5714 5712 5710 5708 5707 5705 5702 5699 5693 5690 5684 5680 5675 5669 5663 5657 5652 5647 5641 5636 5629 5623 5617 5610 5604 5598 5592 5586 5581 5576 5571 5566 5562 5558 5556 5556 5555 5554
5757 5753 5750 5745 5740 5735 5727 5720 5715 5709 5711 5710 5706 5703 5701 5699 5697 5695 5691 5686 5684 5680 5675 5670 5664 5657 5651 5645 5639 5633 5626 5619 5612 5604 5597 5590 5583 5577 5571 5565 5560 5554 5549 5544 5539 5536 5534 5534 5533
5752 5747 5743 5737 5732 5726 5719 5715 5711 5703 5707 5703 5700 5699 5697 5695 5693 5690 5686 5683 5680 5674 5670 5665 5659 5652 5646 5640 5633 5626 5619 5611 5604 5596 5588 5580 5572 5566 5558 5551 5544 5538 5533 5528 5523 5519 5516 5515 5513
5743 5740 5735 5729 5722 5717 5711 5709 5707 5705 5701 5699 5697 5696 5694 5692 5690 5686 5682 5680 5676 5670 5665 5661 5655 5648 5641 5633 5626 5618 5610 5602 5594 5586 5577 5569 5561 5554 5547 5539 5532 5525 5519 5513 5506 5500 5496 5494 5493
5733 5731 5727 5721 5714 5710 5708 5706 5703 5701 5701 5698 5696 5692 5688 5688 5686 5684 5680 5677 5672 5667 5662 5657 5651 5643 5634 5627 5619 5610 5602 5594 5585 5576 5567 5561 5554 5546 5538 5531 5523 5511 5508 5498 5489 5481 5476 5474 5473
5728 5724 5719 5714 5710 5708 5706 5703 5697 5698 5697 5696 5694 5690 5688 5687 5686 5683 5679 5675 5670 5665 5659 5653 5644 5636 5628 5620 5612 5603 5595 5585 5577 5569 5560 5557 5551 5542 5533 5525 5515 5507 5498 5486 5476 5468 5461 5455 5453
5722 5717 5713 5708 5707 5706 5704 5702 5699 5697 5697 5693 5689 5686 5686 5685 5684 5682 5677 5672 5667 5661 5655 5646 5637 5629 5622 5614 5605 5597 5588 5581 5571 5563 5560 5554 5545 5536 5528 5518 5506 5497 5483 5470 5457 5447 5442 5436 5430
5717 5712 5708 5706 5704 5704 5703 5700 5699 5698 5695 5691 5689 5687 5687 5686 5685 5681 5675 5669 5662 5656 5649 5640 5633 5626 5618 5609 5600 5593 5586 5580 5568 5562 5557 5549 5539 5530 5519 5508 5496 5484 5470 5456 5443 5431 5422 5416 5410
5709 5705 5703 5704 5703 5702 5701 5700 5699 5698 5696 5694 5692 5689 5688 5686 5682 5677 5672 5665 5660 5652 5645 5638 5631 5623 5614 5606 5598 5591 5586 5578 5572 5560 5554 5545 5537 5525 5513 5501 5489 5475 5459 5441 5428 5416 5405 5397 5389
5704 5701 5701 5701 5701 5701 5702 5701 5699 5698 5697 5696 5693 5690 5688 5685 5681 5676 5670 5664 5657 5650 5643 5636 5628 5619 5613 5605 5599 5593 5585 5578 5570 5564 5553 5543 5534 5521 5508 5496 5483 5467 5449 5432 5420 5406 5393 5380 5374
5700 5699 5700 5700 5701 5701 5701 5701 5699 5698 5697 5696 5694 5692 5690 5686 5681 5676 5670 5663 5656 5650 5643 5634 5626 5619 5613 5608 5601 5593 5587 5580 5571 5564 5554 5544 5533 5520 5506 5491 5478 5461 5442 5427 5411 5399 5384 5369 5363